User: anonymous   Login
Location: Oshawa
(43.9000°N, 78.8670°W)
Time: 05:56:39
(UTC-05:00)
Language:

CZ-4C R/B - Orbit

View from above orbital plane
View from above orbital plane
View from above satellite
View from above satellite

Ground track
Ground track

The orbit data is extracted from the following two-line orbital elements,

1 32290U 07055B   14327.16155950  .00011925  00000-0  44184-3 0   153
2 32290 097.5622 043.1092 0083998 212.6886 205.3134 15.24467230388470
Epoch (UTC): 23 November 2014 03:52:38
Eccentricity: 0.0083998
inclination: 97.5622°
perigee height: 434 km
apogee height: 550 km
right ascension of ascending node: 43.1092°
argument of perigee: 212.6886°
revolutions per day: 15.24467230
mean anomaly at epoch: 205.3134°
orbit number at epoch: 38847

The dashed part of the orbit path shows where the satellite is in the earth's shadow,  

DLR